Temperature
4 3 3 3 3 4 4 4 4 4 5 5 5 5 6 7 7 7 7 7 7 8 9 9 9 9 10 10 10 11 11 11 12 12 12 12 12 13 13 13 13 13 13 13
3 4 4 4 4 4 4 4 4 4 5 6 5 5 6 6 7 7 7 7 7 7 8 9 9 9 9 10 10 10 11 11 11 12 12 12 12 13 13 13 13 13 13 13
4 4 5 5 4 4 4 4 4 5 5 6 5 5 6 7 7 7 7 7 7 7 7 8 8 9 9 9 10 10 10 11 11 11 11 12 12 12 12 12 13 13 13 13
4 5 5 5 5 5 5 5 5 5 5 5 5 5 6 6 6 6 6 6 6 7 7 7 8 8 9 9 9 10 10 10 11 11 11 11 11 11 12 12 13 13 13 13
4 5 5 5 5 5 5 6 6 5 5 5 5 5 5 6 6 6 6 6 6 6 7 7 7 8 8 9 9 9 10 10 10 10 11 11 11 11 12 12 12 12 12 12
4 5 5 6 6 6 6 6 5 5 5 5 5 5 5 5 5 6 6 6 6 6 6 6 7 8 8 8 8 9 9 9 10 10 10 10 11 11 11 11 11 12 12 12
5 6 6 6 6 6 6 5 4 5 4 5 5 5 5 5 5 6 5 5 5 5 5 6 6 7 7 8 8 8 8 9 9 9 10 10 10 11 11 11 11 11 11 11
4 5 6 6 6 6 6 5 5 5 5 5 5 5 5 6 6 5 5 5 5 5 5 5 6 6 7 7 7 8 8 8 9 9 9 10 10 10 10 10 11 11 11 11
5 5 6 6 6 6 6 5 5 5 5 5 5 5 6 6 6 5 5 4 4 4 4 4 5 6 6 6 7 7 7 8 8 8 9 9 9 10 10 10 10 11 11 11
5 5 6 6 6 6 6 6 5 5 6 6 6 5 5 5 5 5 4 4 4 4 4 4 4 5 5 6 6 7 7 7 8 8 8 8 9 9 9 10 10 10 10 10
5 5 5 6 6 6 6 6 5 5 5 6 6 6 5 5 5 4 4 4 3 3 3 4 4 4 5 5 6 6 7 7 7 7 8 8 8 9 9 9 9 9 9 10
5 5 5 6 6 6 6 6 5 6 5 5 5 5 5 5 4 4 4 3 3 3 3 3 4 4 5 5 5 5 6 6 6 7 7 7 7 8 8 8 8 9 9 9
5 5 5 6 6 6 6 6 6 5 5 5 5 5 5 4 4 4 3 3 3 3 3 3 4 4 4 4 5 5 5 6 6 6 7 7 7 7 7 8 8 8 8 8
6 5 5 5 6 5 5 6 5 5 5 5 5 5 5 4 4 3 3 3 3 3 3 3 3 3 4 4 4 4 5 5 5 6 6 6 6 6 7 7 7 7 8 8
5 5 5 5 5 5 5 5 5 5 5 5 5 5 5 4 3 3 3 3 3 3 3 3 3 3 3 4 4 4 4 5 5 5 5 5 5 6 6 6 7 7 7 7
4 5 5 5 5 5 5 5 5 5 5 5 5 5 5 4 4 3 3 3 3 3 3 3 3 3 3 3 3 4 4 4 4 4 4 4 5 5 5 5 5 6 6 6
3 4 5 5 5 6 5 5 5 5 5 5 5 5 4 4 3 3 3 3 3 3 3 3 3 3 3 3 3 3 3 3 3 3 4 4 4 4 4 4 5 5 5 5
4 4 4 4 5 5 6 6 5 5 5 5 5 4 4 4 4 4 4 4 3 3 3 3 3 3 3 2 2 3 3 3 3 3 3 3 3 3 4 4 4 4 4 4
3 4 4 4 4 4 6 6 5 5 6 5 4 4 4 4 4 4 4 4 4 3 3 3 3 3 2 2 2 2 2 2 2 2 2 2 2 2 2 3 3 3 3 3
3 3 3 4 5 6 6 6 6 6 5 5 4 3 3 3 3 3 4 4 4 3 3 3 3 2 2 2 2 2 2 2 2 1 1 1 1 1 2 2 2 2 2 2
4 3 3 4 4 4 5 5 6 6 6 6 5 5 4 3 4 5 5 4 4 3 3 3 2 2 2 2 2 2 1 1 1 1 1 1 1 1 1 1 1 1 1 1
3 3 3 3 4 4 5 5 5 5 6 6 6 6 5 5 5 5 4 4 3 3 3 2 2 2 1 1 1 1 1 0 0 0 0 0 0 0 0 -0 -0 -0 -0 -0
1 2 2 3 4 5 5 6 7 6 6 7 7 7 6 5 5 5 4 4 3 3 3 2 2 1 1 1 0 0 0 -0 -0 0 0 -0 -0 -0 -1 -1 -1 -1 -1 -1
1 1 1 1 2 4 5 6 7 7 7 7 7 6 6 6 5 5 4 4 3 3 2 2 1 1 1 0 0 -0 -0 -1 -1 -1 -1 -1 -1 -1 -1 -2 -2 -2 -2 -3
1 1 0 1 2 3 6 7 7 7 7 7 6 6 6 5 5 5 4 3 3 3 2 1 1 1 0 -0 -0 -1 -1 -1 -1 -1 -2 -2 -2 -2 -2 -2 -3 -3 -3 -4
-0 1 1 3 4 3 6 7 7 7 7 6 6 6 6 5 5 4 4 3 3 2 2 1 1 0 -0 -1 -1 -1 -1 -2 -2 -2 -2 -3 -3 -3 -3 -3 -3 -3 -4 -4
Wind_Speed
2 3 3 5 5 4 2 2 7 8 7 6 10 15 16 12 8 9 9 10 11 12 12 10 9 8 8 8 9 9 10 10 8 6 7 7 7 7 7 8 10 12 13 15
2 2 4 4 4 3 4 6 8 8 5 5 9 14 12 9 7 7 9 9 10 11 11 10 8 6 7 7 8 8 9 9 10 8 7 5 5 5 7 7 9 11 13 14
3 2 2 3 3 4 6 6 6 7 8 5 6 8 5 6 5 7 7 7 8 9 12 11 7 6 6 7 7 8 8 8 9 9 6 4 4 3 5 7 8 10 12 13
2 3 2 3 4 5 5 6 7 7 6 5 3 5 7 8 9 10 10 10 10 11 10 9 8 6 5 6 5 6 6 7 7 8 8 9 8 8 7 7 8 9 11 12
2 2 2 3 4 5 6 4 5 5 4 5 2 3 7 7 9 13 13 12 11 11 10 8 7 6 5 4 3 4 5 5 6 7 8 10 9 8 6 6 8 9 10 11
3 2 3 3 3 5 4 2 3 2 1 3 2 2 5 6 10 13 12 13 13 12 11 9 8 7 6 4 2 2 2 3 4 6 7 9 10 9 8 8 8 8 7 9
4 2 2 2 1 0 0 1 3 4 2 3 2 1 4 7 9 10 11 12 11 11 11 11 11 10 9 7 4 1 0 1 2 4 6 7 9 9 10 9 9 8 6 7
3 3 2 2 2 1 1 2 2 1 2 4 2 2 4 6 9 9 9 10 11 12 12 12 11 10 9 9 6 4 3 2 1 1 3 4 4 5 5 6 5 6 6 6
1 3 3 1 2 1 0 1 1 1 1 2 4 4 4 7 10 11 11 12 13 13 13 12 12 11 11 11 9 7 5 5 4 2 2 1 1 2 3 3 3 3 3 4
0 3 4 2 1 1 1 2 1 1 1 2 4 3 5 10 11 10 11 12 12 12 12 12 12 12 12 12 11 10 9 8 7 6 5 4 3 3 3 3 2 2 2 2
0 1 4 2 1 1 0 0 1 1 1 1 2 3 3 5 6 7 8 9 11 12 12 12 11 11 12 13 13 14 12 11 10 9 7 7 7 6 6 5 4 3 3 2
1 1 3 4 3 2 2 1 2 1 1 1 1 3 4 3 4 5 7 8 9 10 11 11 12 12 13 14 14 14 13 12 11 9 9 10 10 9 8 7 6 5 4 3
1 2 3 5 4 3 2 2 1 2 2 1 1 3 3 4 5 6 6 7 8 9 11 11 12 12 13 13 13 13 13 13 12 11 11 11 11 10 9 8 7 6 6 6
2 2 2 1 3 3 4 3 0 2 2 1 2 3 4 4 4 5 6 6 7 8 9 10 11 12 12 12 12 12 13 13 13 13 13 12 11 10 10 9 9 9 8 7
3 2 1 2 3 2 2 2 2 2 2 3 2 2 4 2 1 2 3 5 6 8 9 10 10 10 11 12 12 12 12 12 12 13 14 13 12 12 12 12 12 11 10 9
3 1 2 3 3 3 2 3 1 1 1 2 1 3 2 0 2 2 3 4 5 6 7 8 8 9 10 10 11 11 12 12 12 13 13 12 12 12 12 11 11 11 10 9
3 2 2 4 6 4 4 3 1 1 2 3 3 3 1 1 0 1 1 2 2 4 5 6 6 7 7 8 9 9 9 10 11 12 11 11 11 11 10 10 10 10 9 9
1 1 0 3 5 2 5 1 3 2 3 4 4 3 3 3 2 0 0 1 1 2 3 4 5 6 6 7 7 8 9 10 11 11 11 10 10 10 10 10 10 9 8 8
3 2 1 1 2 6 6 2 2 2 4 4 5 3 3 2 2 2 1 2 1 1 1 2 3 3 5 7 7 8 9 9 10 10 10 9 9 8 9 9 8 7 7 7
3 3 2 1 1 4 4 1 1 2 5 4 5 6 5 4 1 3 2 3 2 2 2 2 3 4 6 6 6 7 8 9 9 9 8 8 8 8 8 8 7 6 6 6
1 1 2 2 4 7 6 2 2 2 5 2 5 6 7 6 5 2 4 3 3 3 3 3 4 4 5 5 6 7 7 8 7 7 6 7 7 7 7 7 6 7 7 7
4 3 3 3 3 7 3 3 5 6 3 2 4 5 7 5 3 3 4 4 4 3 3 3 4 4 4 5 5 6 6 6 6 6 7 7 8 7 7 6 6 6 6 7
5 7 5 7 8 5 4 7 5 4 4 4 4 5 6 6 5 4 4 4 3 3 2 2 3 3 4 4 4 5 6 6 6 7 7 7 7 7 7 6 7 6 6 6
5 3 3 6 8 7 8 7 6 5 5 4 4 5 7 6 6 6 5 4 3 3 2 2 2 2 3 4 4 3 5 6 6 7 7 7 7 8 7 6 5 5 6 6
7 4 4 7 8 8 7 7 7 5 4 3 3 5 7 7 6 6 5 5 4 3 2 2 2 1 1 3 4 4 5 5 5 6 6 7 6 7 7 6 5 6 5 6
7 9 8 9 8 6 7 5 4 5 5 6 5 4 4 6 7 6 5 5 4 3 2 2 1 0 1 2 3 4 4 4 4 5 5 5 5 5 6 6 7 9 9 13
Wind_Direction
74 95 190 201 188 181 172 255 282 275 275 283 274 281 292 300 294 293 297 297 294 287 280 280 269 261 249 244 239 233 230 223 206 198 196 196 204 203 199 201 199 196 196 194
88 233 230 186 185 207 238 274 280 287 284 280 284 286 289 297 292 296 302 303 302 304 309 303 286 267 250 244 242 234 230 220 207 202 197 188 185 196 200 202 201 200 198 197
172 227 186 180 203 226 247 244 261 280 311 295 302 305 304 321 319 324 322 314 316 311 309 308 299 274 260 251 243 239 231 219 207 201 195 183 175 176 190 197 203 204 200 200
243 260 209 210 230 208 264 236 244 274 308 309 344 311 310 329 336 346 344 341 332 322 320 316 316 304 280 258 243 235 227 216 203 195 195 193 195 202 205 202 202 199 199 201
244 225 199 227 234 201 238 257 249 259 263 288 288 268 302 338 343 345 345 343 337 335 336 330 328 315 308 290 258 238 225 214 200 196 201 205 208 208 203 194 196 200 201 202
250 241 215 224 248 214 247 297 279 253 241 293 285 225 310 339 334 335 341 343 342 347 349 349 350 353 346 331 298 272 234 226 207 200 202 207 207 204 199 198 200 203 203 203
341 300 240 205 309 1 177 47 13 5 359 274 300 237 289 323 333 335 338 342 351 358 0 1 2 2 358 357 354 355 5 255 234 213 208 209 210 205 204 204 203 202 203 206
10 328 281 210 215 241 256 142 140 245 288 307 334 295 298 331 342 350 357 0 7 9 8 5 6 7 3 5 6 11 16 0 354 252 218 207 207 206 204 200 198 203 206 205
22 302 303 239 222 176 143 168 187 159 276 300 312 308 321 352 360 6 12 14 13 11 10 10 11 12 10 10 12 21 31 28 26 29 46 97 168 178 182 177 183 182 189 194
205 299 308 313 43 351 181 175 104 142 352 322 323 334 337 342 352 3 9 11 10 8 10 13 17 17 17 18 19 26 32 33 32 34 47 55 72 95 99 102 109 126 130 139
335 328 319 357 345 286 347 99 167 174 179 171 328 321 336 335 348 359 5 9 10 10 11 14 18 19 22 24 26 28 28 29 32 36 44 48 54 62 67 68 69 77 78 85
247 140 298 277 259 231 210 215 183 176 271 166 174 298 352 350 5 17 15 15 15 16 17 20 23 25 25 26 26 27 27 30 31 36 46 49 46 46 53 51 47 48 49 49
129 67 353 349 348 357 337 305 214 156 117 130 165 284 355 14 25 27 25 19 18 20 24 25 26 25 26 24 24 26 27 29 32 39 48 50 45 43 41 38 38 44 48 45
101 74 134 204 272 301 314 328 20 132 136 166 223 271 325 354 10 14 20 21 22 24 27 28 26 24 23 24 24 26 26 28 33 39 45 45 39 36 34 37 38 37 38 39
68 47 319 272 285 287 315 336 47 116 172 181 221 249 287 304 339 11 22 24 27 26 26 27 25 22 22 22 22 24 27 28 33 39 41 38 35 35 35 35 34 34 33 32
28 19 343 319 326 328 336 332 5 118 137 163 169 279 288 71 88 51 25 28 28 20 21 25 26 24 23 21 20 24 26 25 31 37 35 32 33 34 32 31 30 32 31 28
353 21 0 305 316 343 312 281 229 206 204 176 206 236 185 137 164 298 340 17 16 13 19 24 24 22 21 19 19 23 23 26 33 35 31 29 29 31 28 27 28 27 23 24
195 65 52 322 5 299 260 268 195 209 248 220 232 232 191 197 189 149 166 161 3 11 18 17 16 17 17 18 20 23 29 31 31 30 26 23 24 25 21 24 23 17 15 17
181 152 85 30 320 288 300 264 176 191 283 225 214 214 171 139 69 335 258 162 156 82 52 25 16 20 21 19 15 28 31 29 29 24 18 15 17 20 19 19 12 8 9 10
75 99 118 116 289 267 273 278 190 96 299 245 192 193 172 140 165 267 193 146 126 95 77 58 38 37 31 14 16 37 29 26 20 10 5 6 12 15 13 8 3 0 3 359
0 46 153 200 243 269 261 255 120 151 266 259 187 189 176 190 210 195 142 134 125 106 84 69 56 42 21 9 26 35 26 14 356 352 359 5 7 6 3 1 359 355 355 353
210 198 205 181 221 261 240 146 184 223 257 224 194 188 186 196 162 141 143 136 123 104 79 68 59 36 16 16 29 28 11 348 346 355 3 2 360 0 0 357 353 351 351 349
218 203 201 203 223 245 220 219 239 212 225 224 202 198 180 178 180 172 161 150 138 126 103 78 76 45 18 15 26 20 348 344 352 1 0 354 353 354 354 353 349 348 350 348
270 206 219 265 265 257 252 251 252 227 222 226 204 187 174 181 182 175 167 160 156 148 137 119 96 56 12 4 12 1 345 351 359 358 353 351 351 348 347 347 343 341 338 335
241 202 222 260 275 292 275 242 241 239 226 215 196 185 182 177 179 177 174 174 171 160 148 132 125 101 348 354 356 352 351 357 357 351 347 346 344 338 335 333 327 325 310 315
209 197 201 236 235 221 257 264 233 222 225 210 193 188 183 180 180 171 173 172 165 162 152 139 139 145 326 345 342 341 344 352 351 345 341 336 332 329 328 327 326 325 324 323
Height
1481 1485 1487 1487 1488 1489 1491 1492 1491 1486 1480 1479 1475 1468 1461 1458 1456 1452 1449 1446 1443 1439 1437 1436 1435 1434 1434 1434 1436 1437 1440 1443 1446 1449 1452 1455 1458 1461 1465 1469 1472 1476 1480 1484
1484 1485 1484 1484 1486 1488 1489 1490 1488 1482 1477 1475 1471 1465 1458 1455 1452 1449 1446 1442 1439 1435 1432 1430 1428 1427 1427 1428 1429 1431 1433 1436 1440 1443 1447 1450 1454 1457 1460 1464 1467 1471 1475 1479
1483 1483 1481 1483 1485 1486 1486 1487 1485 1482 1477 1473 1472 1464 1457 1452 1449 1446 1443 1440 1436 1433 1429 1425 1423 1422 1422 1422 1424 1425 1427 1430 1434 1438 1442 1445 1448 1452 1455 1458 1461 1465 1469 1473
1482 1481 1481 1482 1482 1483 1482 1479 1479 1478 1479 1477 1475 1471 1458 1454 1449 1445 1442 1438 1434 1431 1426 1422 1420 1418 1418 1418 1419 1421 1423 1426 1429 1432 1436 1439 1442 1445 1448 1452 1456 1460 1464 1467
1481 1479 1479 1480 1478 1479 1479 1476 1477 1476 1477 1476 1473 1473 1464 1456 1451 1446 1442 1439 1434 1429 1425 1421 1418 1417 1415 1415 1416 1417 1419 1421 1424 1427 1430 1434 1437 1440 1444 1448 1451 1454 1458 1461
1479 1477 1477 1476 1475 1476 1475 1475 1475 1475 1476 1476 1471 1473 1467 1460 1455 1449 1444 1439 1435 1430 1425 1422 1419 1416 1414 1413 1414 1415 1416 1418 1420 1423 1426 1428 1431 1435 1439 1442 1445 1449 1452 1455
1479 1476 1475 1475 1475 1474 1475 1478 1482 1480 1481 1476 1469 1470 1467 1459 1455 1451 1446 1441 1436 1431 1427 1423 1419 1416 1414 1413 1413 1413 1414 1415 1417 1419 1421 1424 1427 1430 1433 1436 1440 1444 1446 1449
1483 1481 1474 1473 1474 1474 1474 1476 1481 1481 1479 1474 1469 1469 1465 1460 1456 1452 1447 1443 1438 1433 1429 1425 1421 1418 1415 1413 1412 1412 1413 1414 1415 1416 1417 1420 1423 1425 1428 1432 1435 1438 1441 1444
1482 1480 1473 1472 1472 1472 1473 1475 1476 1479 1479 1476 1471 1468 1462 1459 1456 1452 1449 1445 1441 1437 1432 1428 1423 1420 1418 1415 1413 1412 1412 1412 1413 1414 1415 1417 1419 1421 1424 1427 1431 1433 1436 1439
1481 1480 1474 1472 1472 1472 1473 1474 1477 1477 1474 1471 1469 1468 1467 1461 1458 1455 1452 1449 1445 1440 1436 1431 1427 1424 1420 1417 1415 1413 1412 1411 1412 1412 1414 1415 1416 1419 1422 1425 1427 1429 1432 1435
1480 1481 1477 1474 1473 1473 1474 1474 1475 1476 1475 1475 1472 1471 1466 1464 1461 1458 1456 1452 1449 1444 1440 1435 1432 1428 1424 1421 1417 1415 1414 1413 1412 1413 1414 1415 1416 1418 1421 1423 1425 1427 1429 1432
1480 1482 1480 1475 1471 1471 1471 1472 1473 1474 1475 1477 1476 1476 1466 1464 1462 1460 1458 1455 1452 1448 1444 1440 1436 1432 1429 1425 1423 1420 1418 1416 1415 1415 1415 1416 1417 1419 1420 1422 1424 1426 1427 1430
1479 1482 1483 1478 1477 1474 1472 1471 1471 1473 1475 1477 1476 1476 1467 1465 1464 1462 1461 1458 1455 1452 1448 1444 1441 1437 1434 1431 1428 1426 1423 1421 1420 1418 1418 1419 1420 1421 1421 1423 1424 1425 1427 1428
1478 1482 1485 1483 1479 1477 1474 1471 1470 1472 1476 1476 1474 1472 1468 1466 1466 1464 1463 1461 1458 1455 1452 1449 1445 1442 1439 1436 1434 1431 1429 1426 1424 1423 1422 1422 1423 1423 1423 1424 1424 1425 1427 1428
1479 1483 1482 1480 1478 1476 1475 1472 1471 1472 1473 1474 1472 1471 1468 1467 1466 1466 1464 1463 1460 1458 1455 1452 1450 1447 1444 1441 1438 1436 1433 1431 1430 1428 1426 1426 1426 1426 1426 1426 1426 1426 1427 1428
1482 1483 1482 1480 1476 1476 1474 1471 1470 1471 1471 1472 1471 1470 1466 1466 1466 1466 1465 1464 1462 1460 1459 1456 1454 1451 1449 1446 1443 1441 1438 1436 1434 1432 1430 1430 1429 1428 1428 1428 1428 1427 1427 1427
1485 1485 1484 1483 1480 1474 1474 1470 1469 1469 1469 1469 1469 1468 1467 1467 1467 1466 1466 1465 1464 1462 1461 1459 1457 1455 1453 1450 1448 1445 1443 1441 1438 1436 1435 1433 1432 1432 1431 1430 1429 1428 1427 1427
1486 1486 1488 1487 1482 1482 1473 1467 1468 1468 1467 1467 1466 1465 1466 1466 1466 1466 1466 1465 1465 1464 1462 1461 1459 1457 1455 1453 1451 1449 1446 1444 1441 1439 1438 1436 1435 1433 1432 1431 1429 1428 1427 1426
1484 1486 1488 1489 1488 1481 1470 1467 1467 1468 1466 1464 1464 1464 1465 1466 1466 1466 1466 1465 1465 1465 1464 1462 1461 1459 1458 1455 1453 1451 1448 1446 1444 1442 1440 1438 1437 1435 1433 1431 1430 1428 1427 1425
1485 1486 1489 1489 1484 1477 1469 1466 1465 1468 1467 1462 1462 1463 1464 1466 1469 1467 1465 1465 1465 1465 1464 1463 1462 1461 1459 1457 1455 1453 1450 1447 1445 1444 1442 1440 1438 1436 1434 1432 1430 1428 1426 1424
1486 1488 1489 1488 1486 1478 1468 1465 1466 1472 1466 1460 1460 1461 1462 1463 1464 1464 1464 1464 1464 1464 1464 1463 1462 1461 1459 1457 1456 1453 1451 1449 1447 1445 1443 1441 1438 1436 1434 1432 1430 1427 1425 1423
1487 1488 1487 1488 1486 1478 1464 1464 1466 1464 1459 1458 1458 1459 1460 1461 1462 1462 1463 1463 1464 1464 1463 1463 1462 1461 1459 1458 1456 1454 1451 1450 1448 1446 1443 1441 1438 1436 1433 1431 1428 1426 1423 1421
1485 1482 1480 1479 1472 1463 1460 1459 1458 1458 1457 1457 1457 1457 1458 1459 1460 1461 1462 1462 1463 1463 1463 1462 1461 1460 1459 1457 1456 1453 1452 1449 1447 1445 1443 1440 1438 1435 1433 1430 1427 1424 1422 1419
1478 1475 1476 1473 1463 1458 1457 1456 1455 1455 1455 1455 1455 1456 1456 1457 1458 1459 1460 1461 1461 1461 1461 1460 1460 1459 1458 1456 1455 1453 1451 1448 1446 1444 1441 1439 1436 1434 1431 1429 1426 1423 1420 1417
1474 1472 1473 1469 1460 1455 1452 1452 1452 1452 1452 1452 1453 1453 1454 1455 1455 1457 1457 1458 1459 1459 1459 1459 1458 1457 1456 1455 1453 1451 1449 1447 1445 1442 1440 1437 1434 1432 1429 1426 1424 1421 1418 1416
1464 1464 1465 1459 1452 1453 1449 1449 1449 1449 1449 1449 1449 1450 1451 1452 1452 1454 1455 1456 1456 1457 1457 1456 1456 1455 1454 1452 1451 1449 1447 1445 1442 1440 1437 1435 1432 1429 1426 1423 1421 1418 1416 1413